Location: Maiden
(35.5760°N, 81.2120°W)
Time: 02:37:52
(UTC-04:00)

A-11 Canister half - Pass Details

Date: 08 August 2020
Orbit: 1527 x 1682 km, 47.3° (Epoch: 25 September)

Event Time Altitude Azimuth Distance (km) Brightness Sun altitude
Rises 21:47:00 0° 297° (WNW) 4,883 13.4 -16.4°
Reaches altitude 10° 21:50:42 10° 287° (WNW) 3,871 12.3 -17.0°
Maximum altitude 21:58:39 29° 233° (SW) 2,622 10.4 -18.3°
Drops below altitude 10° 22:06:26 10° 178° (S) 3,757 10.7 -19.6°
Enters shadow 22:06:53 - 176° (S) 3,874 10.7 -19.6°
Sets 22:10:00 0° 167° (SSE) 4,717 - -20.1°
